Other Public Products
Issued by NWS Grand Forks, ND

Home | Current Version | Previous Version | Text Only | Print | Product List | Glossary Off
Versions: 1 2 3 4 5 6 7 8 9 10 11 12 13 14 15 16 17 18 19 20 21 22 23 24 25 26 27 28 29 30 31 32 33 34 35 36 37 38 39 40 41 42 43 44 45 46 47 48 49 50

000
FPUS83 KFGF 270531
OPUFGF
PRAIRIE TO PINES WEATHER ROUNDUP
NATIONAL WEATHER SERVICE EASTERN NORTH DAKOTA/GRAND FORKS ND
1200 AM CDT SAT AUG 27 2016

 **SATELLITE DATA USED TO AUGMENT SKY COVER AT AUTOMATED STATIONS**
 *****  WEATHER ACROSS EASTERN NORTH DAKOTA  *****

CITY           SKY/WX    TMP DP  RH WIND       PRES   REMARKS
GRAND FORKS    CLEAR     56  51  84 S8        30.01R
GRAND FORKS AF CLEAR     55  50  85 S9        30.01S
GRAND CITY NWS   N/A     55 N/A N/A S3          N/A
BUXTON           N/A     55  55  97 SE5         N/A
DEVILS LAKE    MOCLDY    61  52  72 S16       30.00R
FARGO          CLOUDY    63  55  75 S5        30.04S
WAHPETON ARPT  CLOUDY    61  54  77 SE7       30.05F
$$

 *****  WEATHER ACROSS CENTRAL AND WESTERN NORTH DAKOTA  *****

CITY           SKY/WX    TMP DP  RH WIND       PRES   REMARKS
JAMESTOWN      CLOUDY    56  53  90 SE6       30.02S
BISMARCK       CLEAR     55  53  93 SE8       30.00F
MINOT          PTCLDY    62  52  69 SW3       29.92F
MINOT AFB      CLOUDY    61  53  75 S8        29.91F
GARRISON         N/A     56  55  97 SW8       29.96S
WILLISTON      PTCLDY    54  45  71 W3        29.95S
DICKINSON      PTCLDY    51  47  86 S8        29.97F
HETTINGER      CLOUDY    56  53  90 SE7       30.01R
$$

 *****  OTHER OBSERVATIONS NORTHEAST NORTH DAKOTA  *****

CITY           SKY/WX    TMP DP  RH WIND       PRES   REMARKS
WALHALLA       FAIR      59  55  88 S10       29.97S
LANGDON        FAIR      55  52  88 S12       29.99S
CAVALIER       FAIR      55  50  82 S7        29.98S
GRAFTON        FAIR      52  52 100 S6        30.02R
CANDO          FAIR      55  52  88 S10       29.99S
FORT TOTTEN      N/A     54  48  81 S7        29.95S
ROLLA          FAIR      50  50 100 S8        29.97S
RUGBY          NOT AVBL
 ***** THE ABOVE OBSERVATIONS ARE NON NWS ARE NOT QUALITY
        CONTROLLED AND MAY MIS-REPORT RAIN FOR SNOW...
$$

 *****  OTHER OBSERVATIONS SOUTHEAST NORTH DAKOTA *****

CITY           SKY/WX    TMP DP  RH WIND       PRES   REMARKS
COOPERSTOWN    NOT AVBL
VALLEY CITY    CLOUDY    57  57 100 S8        30.05S
OAKES            N/A    N/A N/A N/A MISG        N/A
GWINNER        CLOUDY    61  59  94 CALM      30.05S
BUFFALO          N/A     58  56  91 S3          N/A
WYNDMERE         N/A     61  59  94 SE2         N/A
 ***** THE ABOVE OBSERVATIONS ARE NON NWS ARE NOT QUALITY
       CONTROLLED AND MAY MIS-REPORT RAIN FOR SNOW...
$$

  *****  WEATHER ACROSS NORTHERN MINNESOTA  *****

CITY           SKY/WX    TMP DP  RH WIND       PRES   REMARKS
FLAG ISLAND    MOCLDY    64  54  68 CALM      30.00S HAZE
WARROAD        CLOUDY    61  54  77 SW5       30.03S
ROSEAU         CLEAR     54  48  82 S7        30.03R
HALLOCK        CLEAR     54  50  87 S6        30.00R
THF RVR FALLS  CLOUDY    60  55  83 S6        30.06R
HALSTAD          N/A     56  52  85 SE6         N/A
FOSSTON        CLOUDY    57  52  82 S3        30.07S
BAUDETTE       CLOUDY    61  53  75 S5        30.04S
WASKISH        CLOUDY    63  55  77 SW3       30.07R
CROOKSTON      CLEAR     54  52  94 S6          N/A
$$
  *****  WEATHER ACROSS CENTRAL AND WEST MINNESOTA  *****

CITY           SKY/WX    TMP DP  RH WIND       PRES   REMARKS
BEMIDJI        CLOUDY    62  54  75 S3        30.08R
PARK RAPIDS    CLOUDY    63  53  70 S7        30.08F
WADENA         CLOUDY    59  54  82 S3        30.08S
DETROIT LAKES  CLOUDY    63  55  77 S5        30.08S
MOORHEAD       CLOUDY    63  57  82 SE3       30.05F
FERGUS FALLS   MOCLDY    61  55  82 S6        30.08F
ELBOW LAKE     FAIR      60  56  88 SE7       30.07S
MORRIS MN      CLOUDY    63  57  82 S3        30.07S
STAPLES        CLOUDY    61  54  77 CALM      30.10S
WHEATON        CLOUDY    63  59  88 SE7       30.08S
$$
  *****  WEATHER ELSEWHERE ACROSS MINNESOTA  *****

CITY           SKY/WX    TMP DP  RH WIND       PRES   REMARKS
DULUTH         CLOUDY    61  54  77 SW7       30.13R
INTRNTL FALLS  PTCLDY    59  51  75 CALM      30.06R
ELY            PTCLDY    57  52  82 S3        30.12S
CLOQUET        CLOUDY    57  54  88 CALM      30.13S
BRAINERD       CLOUDY    59  55  87 CALM      30.11S
HIBBING        MOCLDY    52  51  97 CALM      30.11S
ALEXANDRIA     CLOUDY    63  55  75 S8        30.11S
SAINT CLOUD    CLOUDY    60  58  92 CALM      30.11R
MINNEAPOLIS    CLOUDY    65  55  70 SE5       30.10F
$$

  *****  WEATHER ACROSS SOUTH DAKOTA  *****

CITY           SKY/WX    TMP DP  RH WIND       PRES   REMARKS
SIOUX FALLS    CLOUDY    66  60  81 SE13      30.08S
BROOKINGS      LGT RAIN  63  58  83 E8        30.08F
WATERTOWN      CLOUDY    63  55  75 SE10      30.07F
HURON          PTCLDY    63  58  83 SE8       30.04F
SISSETON         N/A     62  59  90 S7        30.04F
ABERDEEN       CLOUDY    59  56  89 CALM      30.03F
MITCHELL       LGT RAIN  66  60  81 SE17      30.05F
PIERRE         PTCLDY    58  54  86 SE9       30.00F
MOBRIDGE       CLOUDY    59  54  83 SE10      30.00S
RAPID CITY     CLOUDY    58  56  93 CALM      30.04F
$$

  *****  SOME WEATHER IN NEARBY STATES *****

CITY           SKY/WX    TMP DP  RH WIND       PRES   REMARKS
GLASGOW MT     CLEAR     50  43  77 VRB3      29.94S
GREAT FALLS MT CLEAR     58  39  49 SE9       29.94F
CHEYENNE WY    CLOUDY    54  47  77 SW10      30.18R
SCOTTSBLUFF NE CLOUDY    58  55  90 SE9       30.07S
OMAHA NE       MOCLDY    66  62  87 SE3       30.03F
DES MOINES IA  CLOUDY    65  63  93 NE9       30.04F
DAVENPORT IA   LGT RAIN  68  66  93 E9        30.07F
CHICAGO IL     LGT RAIN  69  65  86 NE7       30.12S
EAU CLAIRE WI  CLOUDY    60  59  96 CALM      30.13F
LA CROSSE WI   LGT RAIN  66  63  90 SE3       30.13S
$$

  *****  SOME NATIONAL WEATHER *****

CITY           SKY/WX    TMP DP  RH WIND       PRES   REMARKS
LA GUARDIA NY  PTCLDY    81  64  56 N6        30.08R
RALEIGH NC     PTCLDY    80  73  79 CALM      30.10S
ATLANTA GA     PTCLDY    81  71  71 NE12      30.10F
NEW ORLEANS LA MOCLDY    83  75  77 E3        29.99S HX  90
OKLAHOMA CITY  PTCLDY    71  68  90 S5        30.03S
ALBUQUERQUE NM PTCLDY    68  47  46 E8        30.17R
SALT LAKE CITY CLEAR     71  28  20 SE9       30.01R
LOS ANGELES CA PTCLDY    65  58  78 W7        29.96S
BOISE ID       PTCLDY    68  33  27 S3        29.91F
SEATTLE WA     PTCLDY    79  46  31 W3        29.82F
$$

*** WEATHER ACROSS MANITOBA...SASKATCHEWAN AND ONTARIO ***
                ***ONTARIO***

CITY           SKY/WX    TMP DP  RH WIND       PRES   REMARKS
GERALDTON      PTCLDY    50  48  93 S2        30.12S
THUNDER BAY    PTCLDY    50  48  93 VRB2      30.13S
SIOUX LOOKOUT  CLOUDY    59  55  88 S6        30.03S
TORONTO        PTCLDY    68  59  73 NW9       30.17R
BIG TROUT LK   PTCLDY    59  57  94 SW5       29.94S
PICKLE LAKE    NOT AVBL
DRYDEN         CLOUDY    63  52  67 S8        30.03S
KENORA         MOCLDY    63  55  77 S8        30.01S
$$
                *** MANITOBA***

CITY           SKY/WX    TMP DP  RH WIND       PRES   REMARKS
BRANDON        PTCLDY    57  50  77 SW8       29.89F
DAUPHIN        CLOUDY    59  55  88 S5        29.84F
ISLAND LAKE    LGT RAIN  59  57  94 SE7       29.87F
PILOT MOUND      N/A     52  50  93 S8          N/A
THE PAS        CLOUDY    57  55  94 NE3       29.81S
THOMPSON       MOCLDY    52  50  93 E2        29.87R
WINNIPEG       MOCLDY    63  52  67 S12       29.94R
LYNN LAKE      CLEAR     50  43  76 MISG      29.85S
CHURCHILL      CLEAR     45  43  93 S9        29.88F
GILLAM         CLOUDY    52  48  87 S5        29.90S
$$
                ***SASKATCHEWAN***

CITY           SKY/WX    TMP DP  RH WIND       PRES   REMARKS
ESTEVAN        CLEAR     50  48  93 S7        29.92R
KINDERSLEY     PTCLDY    50  46  87 SE8       29.86F
LLOYDMINSTER   CLEAR     54  46  76 S8        29.81F
PRINCE ALBERT  CLEAR     50  48  93 NW2       29.85F FOG
REGINA         CLEAR     48  46  93 W7        29.90S
YORKTON        CLEAR     55  52  88 SW5       29.84S
N. BATTLEFORD  CLEAR     50  48  93 SE6       29.86F  C1F1C2F2C3F3C4F4C5F5C6F6C7F7C8F8C9F9CaFaCbFbCcFcCdFdCe!


USA.gov is the U.S. government's official web portal to all federal, state and local government web resources and services.